Location: Gälforsberget
(66.6500°N, 22.4167°E)
Time: 05:59:33
(UTC+00:00)

USA 281 - Pass Details

Date: 11 April 2026
Orbit: 1079 x 1080 km, 106.0° (Epoch: 5 January)

Event Time Altitude Azimuth Distance (km) Brightness Sun altitude
Rises 19:10:13 0° 79° (ENE) 3,888 5.8 -6.6°
Reaches altitude 10° 19:12:49 10° 74° (ENE) 2,932 5.2 -6.8°
Maximum altitude 19:19:02 47° 3° (N) 1,409 4.2 -7.2°
Drops below altitude 10° 19:25:15 10° 293° (WNW) 2,932 6.8 -7.7°
Sets 19:27:51 0° 287° (WNW) 3,889 7.4 -7.8°
